Location: Boss Branch
(32.3799°N, 97.2508°W)
Time: 14:29:34
(UTC+00:00)

JUGNU - Visible Passes

Search period start: 09 December 2025 00:00
Search period end: 19 December 2025 00:00
Orbit: 833 x 860 km, 20.0° (Epoch: 08 December)

Date Brightness Start Highest point End Pass type
(mag) Time Alt. Az. Time Alt. Az. Time Alt. Az.
09 Dec ? 10:39:59 17° S 10:39:59 17° S 10:42:30 10° SSE visible
10 Dec ? 10:24:47 14° SSE 10:24:47 14° SSE 10:26:02 10° SSE visible
18 Dec ? 00:57:28 10° S 00:58:18 10° SSE 00:59:09 10° SSE visible
18 Dec ? 02:42:22 10° SW 02:42:51 12° SSW 02:42:51 12° SSW visible
